Location: Gairloch Mountain Observatory
(46.1383°N, 60.9640°W)
Time: 12:53:59
(UTC-04:00)

Daily predictions for brighter satellites

Satellite Brightness Start Highest point End
(mag) Time Altitude Azimuth Time Altitude Azimuth Time Altitude Azimuth
Cosmos 407 Rocket 3.6 18:08:06 10° SSW 18:13:22 90° W 18:18:44 10° NNE
Meteor 1-28 Rocket 3.3 18:10:42 10° NNE 18:14:30 60° E 18:18:16 10° S
Abrixas rocket 4.3 18:15:39 10° S 18:17:40 15° SE 18:19:40 10° ESE
Okean 1-7 Rocket 4.5 18:14:05 10° N 18:18:04 29° ENE 18:21:59 10° SE
Cosmos 1536 Rocket 3.6 18:14:00 10° N 18:18:31 79° E 18:22:59 10° SSE
Genesis I 3.3 18:14:46 10° NNW 18:18:41 57° NE 18:22:33 10° SE
Cosmos 676 Rocket 4.0 18:15:09 10° SSW 18:20:19 75° ESE 18:25:34 10° NNE
FREGAT/IRIS 3.1 18:19:12 10° SE 18:22:06 38° ENE 18:25:01 10° N
Meteor 1-20 Rocket 4.5 18:16:24 10° SSW 18:22:16 83° WNW 18:28:08 10° N
Cosmos 1484 Rocket 4.2 18:19:32 10° S 18:23:19 44° W 18:27:04 10° NNW
Cosmos 1818 3.7 18:18:37 10° SW 18:24:05 84° NW 18:29:36 10° NE
Cosmos 2322 3.7 18:20:56 10° NNW 18:26:42 83° ENE 18:32:24 10° SSE
METEOR-M 4.1 18:22:01 10° SSE 18:27:20 74° ENE 18:32:41 10° N
Cosmos 1140 Rocket 3.6 18:22:33 10° S 18:27:31 53° ESE 18:32:33 10° NNE
Cosmos 1570 Rocket 4.2 18:23:14 10° NNW 18:28:21 52° ENE 18:33:27 10° SE
Meteor 1-19 Rocket 4.3 18:24:57 10° N 18:30:37 66° ENE 18:36:21 10° SSE
Cosmos 614 Rocket 4.3 18:26:10 10° S 18:30:55 43° ESE 18:35:43 10° NE
Cosmos 1633 2.6 18:27:34 10° S 18:31:12 58° E 18:34:50 10° NNE
USA 229 DEB 4.0 18:26:56 10° NW 18:33:56 57° NE 18:41:02 10° ESE
USA 229 4.0 18:27:02 10° NW 18:34:01 56° NE 18:41:08 10° ESE
ASTRO F (AKARI) 4.4 18:32:38 10° NNE 18:36:13 82° ESE 18:39:34 10° SSW
TSX-5 3.5 18:35:01 10° SW 18:38:09 74° WNW 18:41:33 10° NNE
SJ-6B 2.7 18:35:53 10° SSE 18:39:49 70° ENE 18:43:43 10° N
Cosmos 2237 Rocket 3.3 18:37:59 10° N 18:42:43 26° NE 18:46:21 14° E
Cosmos 2333 4.3 18:37:53 10° NNW 18:43:32 56° ENE 18:49:11 10° SE
Gbstr 26 Del rocket 2.9 18:40:23 10° SW 18:44:06 51° SE 18:46:53 16° ENE
COSMOS 2428 2.7 18:38:35 10° NNW 18:44:16 64° ENE 18:49:54 10° SE
Cosmos 2237 4.2 18:38:30 10° NNW 18:44:17 79° ENE 18:50:00 10° SSE
Cosmos 405 Rocket 4.0 18:42:45 10° NNE 18:46:02 23° ENE 18:48:15 15° ESE
Cosmos 1300 Rocket 3.5 18:42:15 10° S 18:46:40 77° E 18:51:08 10° NNE
Okean 2 4.2 18:45:03 10° N 18:48:45 30° ENE 18:52:26 10° SE
Spot 2 Rocket 3.7 18:44:03 10° SE 18:48:54 49° ENE 18:53:47 10° N
Meteor 2-4 Rocket 3.6 18:43:26 10° N 18:48:59 66° ENE 18:54:20 10° SSE
Helios 1A 4.0 18:47:05 12° ESE 18:50:05 26° ENE 18:53:34 10° N
Meteor 1-13 Rocket 4.4 18:44:31 10° NNW 18:50:06 78° W 18:55:44 10° S
USA 215 4.1 18:44:17 10° NE 18:50:26 45° NNW 18:56:34 10° W
ATLAS 2AS CENTAUR R/B 4.5 18:44:07 10° NW 18:50:27 24° NNE 18:56:24 11° ENE
Meteor 1-23 Rocket 4.3 18:46:03 10° N 18:51:48 59° ENE 18:57:27 10° SSE
Helios 1B rocket 3.8 18:49:08 10° NE 18:52:06 19° E 18:55:03 10° SE
CZ-2D R/B 4.0 18:48:52 10° SE 18:52:14 31° ENE 18:55:39 10° N
Cosmos 1238 Rocket 2.6 18:49:21 10° NNW 18:52:18 61° W 18:55:15 10° S
SL-19 R/B 4.5 18:46:48 10° SE 18:52:26 61° ENE 18:58:31 10° N
COSMO-SKYMED 1 3.9 18:49:17 10° N 18:53:25 43° WNW 18:57:31 10° SW
H-2A R/B 3.1 18:50:06 10° SE 18:53:36 41° ENE 18:57:11 10° N
NOSS 8 (F) 4.4 18:51:23 10° SSW 18:54:50 76° SE 18:58:31 10° NE
Cosmos 2360 Rocket 3.1 18:50:54 10° NW 18:56:24 53° WSW 19:01:53 10° S
Cosmos 2219 Rocket 2.5 18:51:33 10° NNW 18:56:58 47° ENE 19:01:49 13° SE
Cosmos 2208 Rocket 4.0 18:52:31 10° NNW 18:58:01 84° ENE 19:03:25 10° SSE
Resurs 01 Rocket 1.6 18:55:50 10° SSE 19:00:11 61° ENE 19:04:32 10° N
Cosmos 1850 Rocket 4.0 18:57:43 10° S 19:02:59 70° ESE 19:08:19 10° NNE
Cosmos 2219 3.3 18:59:02 10° S 19:04:39 58° ESE 19:10:18 10° NNE
NOSS 3-1 (C) 4.3 18:57:54 10° NNW 19:04:56 47° NE 19:10:26 20° ESE
Envisat 4.0 19:03:55 21° E 19:05:31 25° ENE 19:09:38 10° N
Cosmos 2181 Rocket 4.5 19:01:17 10° NNW 19:07:28 66° W 19:13:45 10° S
BREEZE-M DEB (TANK) 3.3 19:05:02 10° WNW 19:08:01 81° SSW 19:13:23 18° ESE
BREEZE-M DEB (TANK) 3.3 19:05:02 10° SSW 19:08:04 25° SSE 19:08:19 25° SE
Cosmos 2227 Rocket 3.5 19:04:28 10° SE 19:07:24 19° ESE 19:07:24 19° ESE
Cosmos 1536 2.7 19:04:58 10° S 19:08:57 83° E 19:12:57 10° N
Resurs 1-3 3.5 19:08:53 10° SSE 19:13:14 70° ENE 19:17:37 10° N
HJ-1C 3.8 19:12:05 10° S 19:15:25 65° W 19:18:47 10° NNW
SL-16 R/B 3.4 19:13:10 10° N 19:17:37 23° NE 19:18:43 21° ENE
Cosmos 2074 Rocket 3.9 19:15:01 10° S 19:21:15 76° E 19:27:32 10° NNE
Okean 1 Rocket 3.8 19:21:02 10° SSW 19:25:26 56° WNW 19:29:52 10° N
Cosmos 2184 Rocket 3.9 19:20:10 10° S 19:26:27 80° E 19:32:43 10° N
Cosmos 1892 Rocket 3.5 19:22:49 10° N 19:27:08 58° ENE 19:29:32 25° SSE
Spot 1 3.8 19:25:31 23° SSE 19:28:00 67° ENE 19:32:11 10° N
Cosmos 1025 Rocket 3.5 19:29:37 10° NNW 19:33:58 63° W 19:38:18 10° S
Cosmos 371 Rocket 4.4 19:30:03 10° N 19:33:54 27° NE 19:33:54 27° NE
ALOS 3.3 19:31:14 10° S 19:35:43 47° W 19:40:15 10° NNW
USA 186 3.2 19:38:04 25° N 19:38:04 25° N 19:39:24 10° N
SAR-Lupe-1 3.9 19:35:45 47° SSE 19:36:41 83° ENE 19:40:17 10° NNW
SAR-Lupe-4 3.5 19:35:40 30° S 19:37:22 82° WSW 19:40:58 10° NNW
Cosmos 2333 Rocket 2.1 19:32:54 10° NNW 19:38:42 77° ENE 19:41:50 28° SE
Meteor 2-13 Rocket 4.3 19:35:45 10° S 19:41:45 71° E 19:47:51 10° NNE
Cosmos 1980 3.6 19:36:28 10° NNW 19:42:07 67° ENE 19:44:14 38° SE
Nadezhda 3 Rocket 3.9 19:36:07 10° N 19:42:14 64° E 19:46:44 19° SSE
Cosmos 841 Rocket 3.9 19:39:28 10° N 19:44:20 41° ENE 19:44:24 41° ENE
SJ-11-01 4.4 19:45:11 50° E 19:45:22 50° ENE 19:49:59 10° N
Cosmos 2341 Rocket 4.1 19:46:48 10° SSE 19:52:55 52° E 19:59:07 10° NNE
Cosmos 1544 Rocket 3.3 19:49:26 10° S 19:53:44 78° E 19:58:05 10° NNE
Abrixas rocket 3.4 19:50:44 10° WSW 19:52:57 37° SW 19:52:57 37° SW
GEOS 3 Rocket 3.5 19:51:19 28° NE 19:54:11 83° SE 19:59:29 10° SW
NOSS 0 Rocket 3.9 19:48:31 10° NNW 19:54:43 82° WSW 19:58:02 29° SSE
Cosmos 2154 Rocket 3.9 19:49:26 10° S 19:55:45 72° E 20:02:05 10° NNE
Cosmos 1763 Rocket 3.4 19:50:58 10° NNW 19:56:03 61° ENE 19:56:19 60° E
Meteor 1-12 Rocket 4.2 20:15:20 10° S 20:21:19 90° W 20:27:16 10° N
Cosmos 2237 Rocket 2.5 20:21:35 10° NNW 20:27:14 62° WSW 20:28:14 53° SSW
Helios 1B rocket 3.6 20:23:40 10° N 20:27:36 42° WNW 20:31:31 10° SW
Cosmos 962 Rocket 4.4 20:21:40 10° S 20:27:51 88° W 20:34:03 10° N
Cosmos 1066 Rocket 4.2 20:24:21 10° NNW 20:30:02 76° W 20:30:19 74° SW
Cosmos 2297 Rocket 4.5 20:26:04 10° SSW 20:26:20 11° SSW 20:26:20 11° SSW
USA 215 4.4 20:30:31 28° NE 20:32:35 34° N 20:38:19 10° WNW
Meteor 2-8 Rocket 4.4 20:30:18 10° NNW 20:36:21 77° W 20:36:57 70° SW
NOSS 3-1 (A) 4.0 20:30:16 10° NW 20:37:49 84° SW 20:39:19 64° SSE
Cosmos 2219 Rocket 3.8 20:35:55 10° NW 20:40:41 29° WSW 20:43:37 19° SSW
ERS-1 Rocket 3.9 20:45:15 44° NNW 20:45:15 44° NNW 20:48:41 10° NNW
ATLAS 2AS CENTAUR R/B 3.5 20:35:54 10° NW 20:43:41 46° NE 20:43:50 46° NE
Envisat 3.8 20:44:07 47° WSW 20:44:17 47° W 20:49:12 10° NNW
Cosmos 2227 Rocket 3.4 20:46:23 10° SW 20:49:26 33° SW 20:49:26 33° SW
NOSS 3-1 (C) 4.4 20:48:48 10° NW 20:56:10 56° WSW 20:57:53 48° SSW
SL-16 R/B 3.1 20:56:39 10° NNW 21:00:37 46° NW 21:00:37 46° NW
H-2A R/B 4.3 21:21:53 19° N 21:21:53 19° N 21:23:19 10° N
ATLAS 2AS CENTAUR R/B 4.4 22:27:10 10° NW 22:31:17 32° NW 22:31:17 32° NW
